Tracking 30995 objects as of 5-Jul-2025
HD Live streaming from Space Station
objects crossing your sky now

STARLINK-31874

Track STARLINK-31874 now!
10-day predictions
STARLINK-31874 is classified as:


NORAD ID: 60603
Int'l Code: 2024-150W
Perigee: 481.6 km
Apogee: 483.2 km
Inclination: 53.2 °
Period: 94.1 minutes
Semi major axis: 6853 km
RCS: Unknown
Launch date: August 20, 2024
Source: United States (US)
Launch site: AIR FORCE EASTERN TEST RANGE (AFETR)
Your satellite tracking list
BREEZE-M DEB (TANK)
Track 1 satellite(s)




NASA's NSSDC Master Catalog

Two Line Element Set (TLE):
1 60603U 24150W   25186.55503295 -.00000207  00000-0  51221-5 0  9999
2 60603  53.1608  14.9626 0001126  96.5551 263.5578 15.30188806 50202
Source of the keplerian elements: AFSPC